• In Hungary
  • List of Countries
  • For 7 days
  • Water Temperature
  • Satellite Maps
  • Weather Map
  • News
  • Weather Widgets
  • user-avatar
    Login

    Hourly Weather Rakitnya

    Today, 21 September, Friday

    Time Temperature Precipitation Wind Pressure Humidity
    00:00 +14°C° 0 mm 2 mps 740 mmHg 90%
    01:00 +14°C° 0 mm 2 mps 740 mmHg 91%
    02:00 +14°C° 0 mm 2 mps 741 mmHg 91%
    03:00 +14°C° 0 mm 2 mps 741 mmHg 92%
    04:00 +14°C° 0 mm 2 mps 741 mmHg 92%
    05:00 +14°C° 0 mm 2 mps 741 mmHg 93%
    06:00 +15°C° 0 mm 2 mps 741 mmHg 88%
    07:00 +16°C° 0 mm 2 mps 741 mmHg 84%
    08:00 +18°C° 0 mm 3 mps 741 mmHg 79%
    09:00 +19°C° 0 mm 3 mps 741 mmHg 74%
    10:00 +21°C° 0 mm 3 mps 741 mmHg 69%
    11:00 +22°C° 0 mm 4 mps 741 mmHg 64%
    12:00 +23°C° 0 mm 4 mps 741 mmHg 62%
    13:00 +25°C° 0 mm 4 mps 741 mmHg 60%
    14:00 +26°C° 0 mm 4 mps 741 mmHg 59%
    15:00 +25°C° 0.2 mm 3 mps 741 mmHg 65%
    16:00 +24°C° 0.2 mm 3 mps 740 mmHg 71%
    17:00 +21°C° 0.2 mm 2 mps 740 mmHg 78%
    18:00 +20°C° 0.1 mm 2 mps 740 mmHg 82%
    19:00 +19°C° 0.1 mm 2 mps 740 mmHg 86%
    20:00 +18°C° 0.1 mm 2 mps 740 mmHg 90%
    21:00 +18°C° 0 mm 2 mps 740 mmHg 90%
    22:00 +17°C° 0 mm 3 mps 740 mmHg 91%
    23:00 +17°C° 0 mm 3 mps 740 mmHg 92%

    Tomorrow, 22 September, Saturday

    Time Temperature Precipitation Wind Pressure Humidity
    00:00 +17°C° 0 mm 3 mps 739 mmHg 93%
    01:00 +17°C° 0 mm 3 mps 739 mmHg 93%
    02:00 +17°C° 0 mm 3 mps 739 mmHg 94%
    03:00 +16°C° 0 mm 3 mps 738 mmHg 92%
    04:00 +16°C° 0 mm 3 mps 738 mmHg 90%
    05:00 +15°C° 0 mm 4 mps 738 mmHg 89%
    06:00 +17°C° 0 mm 4 mps 737 mmHg 83%
    07:00 +17°C° 0 mm 5 mps 737 mmHg 77%
    08:00 +19°C° 0 mm 5 mps 736 mmHg 70%
    09:00 +20°C° 0 mm 6 mps 736 mmHg 63%
    10:00 +22°C° 0 mm 6 mps 736 mmHg 56%
    11:00 +23°C° 0 mm 7 mps 735 mmHg 48%
    12:00 +23°C° 0 mm 6 mps 735 mmHg 48%
    13:00 +24°C° 0 mm 6 mps 735 mmHg 47%
    14:00 +24°C° 0 mm 6 mps 735 mmHg 47%
    15:00 +22°C° 0.3 mm 5 mps 735 mmHg 57%
    16:00 +19°C° 0.3 mm 4 mps 735 mmHg 67%
    17:00 +17°C° 0.3 mm 4 mps 735 mmHg 77%
    18:00 +14°C° 0.1 mm 3 mps 735 mmHg 79%
    19:00 +13°C° 0.1 mm 3 mps 735 mmHg 81%
    20:00 +12°C° 0.1 mm 2 mps 735 mmHg 83%
    21:00 +12°C° 0.1 mm 2 mps 735 mmHg 84%
    22:00 +12°C° 0.1 mm 2 mps 735 mmHg 85%
    23:00 +10°C° 0.1 mm 2 mps 735 mmHg 86%

    Day after tomorrow, 23 September, Sunday

    Time Temperature Precipitation Wind Pressure Humidity
    00:00 +10°C° 0.5 mm 2 mps 735 mmHg 88%
    01:00 +10°C° 0.5 mm 2 mps 735 mmHg 90%
    02:00 +9°C° 0.5 mm 2 mps 735 mmHg 92%
    03:00 +9°C° 0.5 mm 2 mps 735 mmHg 93%
    04:00 +9°C° 0.5 mm 2 mps 735 mmHg 94%
    05:00 +9°C° 0.5 mm 2 mps 734 mmHg 94%
    06:00 +9°C° 0.3 mm 3 mps 734 mmHg 94%
    07:00 +9°C° 0.3 mm 3 mps 734 mmHg 93%
    08:00 +10°C° 0.3 mm 3 mps 734 mmHg 92%
    09:00 +11°C° 0 mm 3 mps 734 mmHg 86%
    10:00 +11°C° 0 mm 3 mps 734 mmHg 80%
    11:00 +12°C° 0 mm 4 mps 734 mmHg 74%
    12:00 +13°C° 0.3 mm 4 mps 733 mmHg 72%
    13:00 +13°C° 0.3 mm 4 mps 733 mmHg 70%
    14:00 +13°C° 0.3 mm 4 mps 733 mmHg 67%
    15:00 +12°C° 0.2 mm 4 mps 733 mmHg 71%
    16:00 +11°C° 0.2 mm 3 mps 733 mmHg 75%
    17:00 +12°C° 0.2 mm 2 mps 733 mmHg 79%
    18:00 +10°C° 0.1 mm 2 mps 733 mmHg 82%
    19:00 +9°C° 0.1 mm 3 mps 733 mmHg 86%
    20:00 +8°C° 0.1 mm 3 mps 733 mmHg 89%
    21:00 +8°C° 0 mm 3 mps 733 mmHg 90%
    22:00 +7°C° 0 mm 3 mps 733 mmHg 91%
    23:00 +7°C° 0 mm 3 mps 733 mmHg 93%

    24 September, Monday

    Time Temperature Precipitation Wind Pressure Humidity
    00:00 +7°C° 0 mm 3 mps 733 mmHg 94%
    01:00 +7°C° 0 mm 3 mps 733 mmHg 95%
    02:00 +7°C° 0 mm 3 mps 733 mmHg 96%
    03:00 +7°C° 0 mm 3 mps 733 mmHg 94%
    04:00 +7°C° 0 mm 3 mps 733 mmHg 93%
    05:00 +7°C° 0 mm 3 mps 733 mmHg 91%
    06:00 +8°C° 0 mm 3 mps 733 mmHg 90%
    07:00 +8°C° 0 mm 3 mps 733 mmHg 88%
    08:00 +8°C° 0 mm 3 mps 733 mmHg 87%
    09:00 +9°C° 0 mm 3 mps 733 mmHg 82%
    10:00 +10°C° 0 mm 3 mps 733 mmHg 77%
    11:00 +12°C° 0 mm 2 mps 732 mmHg 73%
    12:00 +12°C° 0 mm 2 mps 732 mmHg 71%
    13:00 +13°C° 0 mm 2 mps 731 mmHg 69%
    14:00 +13°C° 0 mm 2 mps 731 mmHg 67%
    15:00 +12°C° 0.4 mm 2 mps 730 mmHg 74%
    16:00 +10°C° 0.4 mm 2 mps 730 mmHg 81%
    17:00 +9°C° 0.4 mm 2 mps 729 mmHg 87%
    18:00 +9°C° 0.8 mm 3 mps 729 mmHg 89%
    19:00 +8°C° 0.8 mm 3 mps 728 mmHg 90%
    20:00 +7°C° 0.8 mm 4 mps 727 mmHg 91%
    21:00 +7°C° 1 mm 4 mps 726 mmHg 91%
    22:00 +7°C° 1 mm 5 mps 725 mmHg 91%
    23:00 +6°C° 1 mm 5 mps 724 mmHg 91%

    25 September, Tuesday

    Time Temperature Precipitation Wind Pressure Humidity
    00:00 +5°C° 1.3 mm 6 mps 724 mmHg 91%
    01:00 +5°C° 1.3 mm 6 mps 723 mmHg 91%
    02:00 +5°C° 1.3 mm 6 mps 723 mmHg 91%
    03:00 +5°C° 1 mm 7 mps 723 mmHg 91%
    04:00 +5°C° 1 mm 7 mps 723 mmHg 90%
    05:00 +5°C° 1 mm 7 mps 723 mmHg 90%
    06:00 +5°C° 0.7 mm 7 mps 724 mmHg 89%
    07:00 +4°C° 0.7 mm 7 mps 724 mmHg 88%
    08:00 +4°C° 0.7 mm 7 mps 724 mmHg 87%
    09:00 +4°C° 0.4 mm 8 mps 725 mmHg 85%
    10:00 +4°C° 0.4 mm 8 mps 726 mmHg 83%
    11:00 +4°C° 0.4 mm 8 mps 726 mmHg 80%
    12:00 +4°C° 0.2 mm 8 mps 727 mmHg 79%
    13:00 +5°C° 0.2 mm 8 mps 728 mmHg 77%
    14:00 +5°C° 0.2 mm 7 mps 729 mmHg 75%
    15:00 +5°C° 0.1 mm 7 mps 729 mmHg 72%
    16:00 +4°C° 0.1 mm 7 mps 730 mmHg 70%
    17:00 +4°C° 0.1 mm 6 mps 730 mmHg 67%
    18:00 +4°C° 0 mm 6 mps 730 mmHg 66%
    19:00 +3°C° 0 mm 6 mps 731 mmHg 65%
    20:00 +2°C° 0 mm 5 mps 731 mmHg 65%
    21:00 +2°C° 0 mm 5 mps 732 mmHg 66%
    22:00 +2°C° 0 mm 5 mps 732 mmHg 67%
    23:00 +1°C° 0 mm 5 mps 732 mmHg 68%

    26 September, Wednesday

    Time Temperature Precipitation Wind Pressure Humidity
    00:00 +1°C° 0 mm 5 mps 733 mmHg 69%
    01:00 +1°C° 0 mm 4 mps 733 mmHg 71%
    02:00 0°C° 0 mm 4 mps 734 mmHg 72%
    03:00 0°C° 0 mm 4 mps 734 mmHg 74%
    04:00 0°C° 0 mm 4 mps 735 mmHg 76%
    05:00 0°C° 0 mm 4 mps 735 mmHg 78%
    06:00 +1°C° 0 mm 4 mps 736 mmHg 76%
    07:00 +1°C° 0 mm 5 mps 736 mmHg 73%
    08:00 +2°C° 0 mm 5 mps 737 mmHg 70%
    09:00 +3°C° 0 mm 5 mps 737 mmHg 65%
    10:00 +5°C° 0 mm 5 mps 738 mmHg 60%
    11:00 +6°C° 0 mm 5 mps 738 mmHg 55%
    12:00 +6°C° 0 mm 5 mps 739 mmHg 55%
    13:00 +6°C° 0 mm 5 mps 739 mmHg 54%
    14:00 +6°C° 0 mm 5 mps 740 mmHg 54%
    15:00 +6°C° 0 mm 4 mps 740 mmHg 56%
    16:00 +5°C° 0 mm 3 mps 741 mmHg 59%
    17:00 +5°C° 0 mm 2 mps 741 mmHg 61%
    18:00 +4°C° 0 mm 2 mps 741 mmHg 65%
    19:00 +3°C° 0 mm 2 mps 742 mmHg 68%
    20:00 +2°C° 0 mm 2 mps 742 mmHg 72%
    21:00 +2°C° 0 mm 2 mps 742 mmHg 74%
    22:00 +2°C° 0 mm 2 mps 742 mmHg 76%
    23:00 +2°C° 0 mm 2 mps 742 mmHg 78%
    Show more